Temperature
13 13 13 13 13 13 13 13 13 13 12 12 12 12 12 12 12 12 12 12 12 12 12 12 12 12 12 12 12 12 12 12 12 12 12 12 12 12 12 12 12 12 12
12 12 12 12 12 12 12 12 12 12 12 12 12 12 12 11 11 11 11 11 11 12 12 12 12 12 12 12 12 12 12 12 12 12 12 12 12 12 12 12 12 12 12
12 12 12 12 12 12 12 12 12 12 12 12 12 12 11 11 11 11 11 11 11 11 11 11 11 11 11 11 11 12 12 11 11 11 11 12 12 12 12 12 12 12 12
11 11 11 11 11 11 11 11 11 11 11 11 11 11 11 11 11 11 11 11 11 11 11 11 11 11 11 11 11 11 11 11 11 11 11 11 11 11 11 11 11 11 11
11 11 11 11 11 11 11 11 11 11 11 11 11 10 10 10 10 10 10 10 10 10 10 10 10 10 10 10 10 10 10 10 10 11 11 11 11 11 11 11 11 11 11
10 10 10 10 10 10 10 10 10 10 10 10 10 10 10 10 10 10 10 10 10 10 10 10 10 10 10 10 10 10 10 10 10 10 10 10 10 10 10 10 10 10 10
10 10 10 10 10 10 10 10 10 10 10 10 9 9 9 9 9 9 9 9 9 9 9 9 9 9 9 9 9 9 9 9 9 9 9 9 9 10 10 10 10 10 10
9 9 9 9 9 9 9 9 9 9 9 9 9 9 9 8 9 9 9 9 9 9 9 9 9 9 9 9 9 9 9 9 9 9 9 9 9 9 9 9 9 9 9
9 9 9 9 9 9 9 9 9 9 8 8 8 8 8 8 8 8 8 8 8 8 8 8 8 8 8 8 8 8 8 8 8 8 8 8 8 8 8 8 8 9 9
9 9 9 9 9 8 8 8 8 8 8 8 8 8 7 7 7 7 7 7 7 7 7 7 7 7 7 7 7 7 7 7 7 7 7 7 8 8 8 8 8 8 8
8 8 8 8 8 8 8 8 8 8 7 7 7 7 7 7 7 6 6 7 7 7 7 7 6 6 6 6 6 6 7 7 7 7 7 7 7 7 7 7 7 7 7
8 8 8 8 8 8 7 7 7 7 7 7 7 7 6 6 6 6 6 6 6 6 6 6 6 6 6 6 6 6 6 6 6 6 6 6 6 6 6 6 6 7 7
8 7 7 7 7 7 7 7 7 7 7 6 6 6 6 6 5 5 5 5 5 5 5 5 5 5 5 5 5 5 5 5 5 5 5 6 6 6 6 6 6 6 6
7 7 7 7 7 7 7 6 6 6 6 6 6 6 5 5 5 5 5 4 4 4 5 5 5 4 4 4 4 4 4 4 4 5 5 5 5 5 5 5 5 5 5
7 7 7 6 6 6 6 6 6 6 6 5 5 5 5 5 5 5 4 4 3 3 3 4 4 4 4 3 4 4 4 4 4 4 4 4 4 4 4 4 4 4 4
6 6 6 6 6 6 6 6 6 5 5 5 5 5 5 5 4 4 4 4 3 3 2 3 3 3 3 3 3 3 3 3 3 3 3 3 3 3 3 3 3 3 3
6 6 6 6 6 6 5 5 5 5 5 5 4 4 4 4 4 4 3 3 3 2 2 3 3 3 3 2 2 2 2 2 2 2 2 2 2 2 2 2 2 3 3
6 6 5 5 5 5 5 5 5 4 4 4 4 4 4 3 3 3 3 3 2 2 2 2 2 2 2 2 2 2 2 2 2 2 2 1 1 1 1 1 2 2 2
5 5 5 5 5 5 4 4 4 4 4 4 4 3 3 3 3 3 2 2 2 2 1 1 2 2 1 1 1 1 1 1 1 1 1 1 1 1 1 1 1 1 1
5 5 5 4 4 4 4 4 4 4 3 3 3 3 3 2 2 2 2 2 1 1 1 1 1 1 1 0 0 0 1 1 1 1 0 0 0 -0 -0 -0 -0 0 0
5 4 4 4 4 4 4 4 3 3 3 3 3 2 2 2 2 2 1 1 1 1 0 0 -0 -0 -0 -0 -1 -1 -0 -0 0 -0 -0 -0 -0 -1 -1 -1 -1 -1 -1
4 4 4 4 4 4 3 3 3 3 3 2 2 2 2 2 1 1 1 1 0 0 -0 -0 -1 -1 -1 -1 -1 -2 -2 -1 -1 -1 -1 -1 -1 -1 -1 -1 -1 -1 -1
4 4 4 4 3 3 3 3 2 2 2 2 2 2 1 1 1 1 0 -0 -0 -0 -1 -1 -1 -1 -2 -2 -2 -2 -2 -2 -2 -2 -2 -2 -1 -1 -1 -2 -2 -2 -2
4 3 3 3 3 3 2 2 2 2 2 2 1 1 1 1 0 -0 -0 -0 -1 -1 -1 -2 -2 -2 -2 -3 -3 -3 -3 -3 -3 -3 -3 -3 -2 -2 -2 -2 -2 -2 -2
3 3 3 3 3 3 2 2 1 1 1 1 1 1 0 0 -0 -1 -1 -1 -1 -1 -2 -2 -2 -3 -3 -3 -3 -4 -4 -4 -4 -3 -3 -4 -3 -3 -2 -2 -2 -3 -3
3 2 2 2 2 2 2 1 1 1 1 1 1 0 -0 -0 -1 -1 -1 -2 -2 -2 -2 -2 -3 -3 -3 -4 -4 -4 -4 -4 -5 -5 -4 -5 -5 -5 -4 -3 -3 -3 -4
Wind_Speed
3 4 4 5 5 5 5 4 4 4 4 4 4 4 3 4 4 4 5 6 6 6 6 6 6 6 6 5 4 4 5 5 5 6 6 7 9 10 11 12 13 13 13
4 4 4 4 5 5 5 4 3 3 3 3 3 4 3 3 4 4 5 5 6 6 6 6 6 7 7 7 6 6 5 4 5 6 7 8 8 9 10 11 11 11 12
6 5 3 3 5 6 5 4 4 3 2 3 4 3 3 3 3 4 4 5 5 7 7 7 7 7 8 8 8 7 6 6 5 5 6 7 7 8 9 10 10 10 11
6 5 3 3 6 6 5 3 3 3 3 3 3 3 3 3 3 4 4 5 5 6 7 9 9 10 10 10 9 9 8 8 7 7 6 6 6 6 7 8 8 9 10
6 5 4 4 6 4 4 3 3 2 3 4 3 3 3 3 3 4 4 5 6 7 7 8 10 12 12 12 12 11 10 9 8 8 8 8 7 6 6 7 7 8 9
5 5 4 5 6 3 3 3 3 3 2 3 2 2 2 2 3 4 4 5 7 8 9 9 9 9 11 12 13 13 12 11 10 10 9 9 9 8 8 7 7 7 8
5 5 4 4 4 3 3 3 2 3 3 3 2 2 2 2 3 3 4 4 6 8 9 10 10 9 10 12 14 14 14 14 12 11 10 10 9 9 9 8 8 7 7
5 3 3 2 3 2 3 3 3 2 2 3 2 1 2 2 3 3 4 4 5 6 8 10 11 11 11 11 13 15 15 14 13 13 12 11 10 10 9 9 8 7 8
4 3 3 2 2 2 2 2 2 2 1 2 2 1 0 2 2 2 3 4 5 5 5 7 10 11 11 11 12 15 16 15 14 14 13 12 11 10 10 10 11 9 7
3 3 2 2 2 2 2 2 2 1 0 1 1 1 0 1 1 2 2 2 4 4 4 5 6 8 10 10 11 15 16 16 15 14 13 12 11 11 11 11 10 11 10
2 2 2 2 2 1 2 2 1 1 0 0 0 1 1 1 0 1 2 3 2 2 3 3 4 6 9 10 11 14 15 15 15 14 13 13 13 12 12 11 12 11 12
2 2 2 1 1 1 1 1 1 1 1 0 0 0 0 0 1 1 2 2 3 2 1 2 3 5 8 10 11 14 15 15 15 14 13 13 13 13 13 12 12 12 12
2 2 1 1 1 1 1 1 0 1 1 0 0 0 0 1 1 1 1 2 2 2 1 1 2 4 7 9 11 13 13 14 14 13 13 13 13 13 13 13 12 12 12
3 2 2 2 2 2 1 0 0 0 0 0 0 0 0 1 1 1 1 1 2 2 2 2 1 3 6 8 10 11 11 13 13 12 12 12 13 13 13 13 13 13 13
2 2 2 2 2 2 1 1 1 1 0 1 1 1 1 1 1 1 1 2 2 2 3 2 1 2 5 7 10 10 11 11 12 11 11 11 11 12 12 12 12 12 12
3 2 3 3 2 2 2 2 2 1 1 1 1 1 1 1 1 1 1 1 2 3 3 2 2 2 3 5 9 10 10 11 11 11 10 10 10 11 11 11 11 12 12
3 4 4 3 3 3 3 3 3 3 3 3 2 2 3 2 1 1 1 1 1 2 4 3 2 2 2 3 6 8 9 8 9 10 9 9 10 10 10 11 11 11 12
4 4 4 4 4 4 4 4 5 4 4 4 4 3 3 2 2 2 1 2 2 2 3 4 3 2 3 3 4 4 6 7 8 9 9 9 10 10 10 10 10 11 11
4 4 4 5 5 5 5 5 5 5 5 5 5 5 4 3 4 3 3 3 2 2 2 3 3 2 2 2 3 4 4 5 7 8 8 9 10 10 9 10 10 10 11
4 4 5 5 5 5 5 5 5 5 5 5 5 5 5 5 5 5 4 4 3 2 2 3 4 3 3 3 2 3 4 4 5 6 7 9 10 10 10 10 10 10 10
4 4 4 5 5 4 5 6 6 6 6 5 5 5 6 7 8 6 5 4 4 3 3 3 4 3 3 2 2 2 4 5 4 2 4 5 6 6 8 9 10 10 10
4 4 4 5 5 5 8 9 7 6 6 6 6 5 6 7 8 9 9 8 7 5 4 4 4 5 5 4 3 3 3 4 4 2 3 5 3 4 5 8 10 11 10
4 4 5 5 6 7 10 10 10 6 6 6 6 6 5 5 7 5 7 9 8 9 9 5 6 6 5 4 3 3 4 4 5 3 3 5 3 4 5 9 12 11 9
4 5 5 6 6 8 10 10 10 6 5 6 6 6 6 6 6 6 5 5 6 6 7 5 6 6 6 5 5 4 4 5 5 4 2 4 3 4 5 8 11 8 8
4 5 5 5 6 8 10 10 9 4 5 6 6 6 7 7 10 10 6 6 6 6 8 10 11 10 10 10 6 2 3 3 5 3 1 2 3 4 4 4 6 8 9
5 5 5 5 6 7 10 10 9 4 5 5 5 6 10 10 11 11 7 7 8 7 5 5 6 7 7 7 8 5 4 4 4 3 2 2 2 3 4 3 3 5 8
Wind_Direction
40 29 21 21 16 11 5 356 353 349 350 351 353 351 340 336 336 335 331 347 354 0 359 352 347 339 331 328 318 301 286 273 270 274 272 267 264 263 261 258 254 252 250
49 34 21 15 11 5 358 352 346 340 337 347 347 349 342 344 350 349 342 344 358 3 5 360 354 347 349 347 341 334 325 308 288 283 281 275 270 269 268 264 262 259 254
52 43 27 12 0 2 5 6 1 360 0 359 347 346 357 3 10 6 358 357 1 8 15 18 17 11 3 356 349 347 347 342 331 310 298 289 281 275 276 275 268 264 262
52 48 33 9 2 13 16 11 5 1 1 358 347 341 353 9 15 17 20 19 20 17 19 27 27 24 19 12 7 4 1 356 352 346 330 317 302 290 291 291 283 280 276
47 48 34 13 11 21 22 14 16 8 355 351 343 343 351 1 7 29 34 30 28 29 26 27 32 29 25 21 16 10 3 2 359 355 355 351 334 312 301 297 295 290 286
42 43 34 20 19 27 21 15 10 9 354 340 346 357 355 5 26 37 36 37 38 38 38 35 29 24 25 25 20 15 9 2 359 356 349 343 342 329 304 296 295 291 288
33 40 29 20 22 26 16 8 5 12 9 355 6 357 359 27 49 41 43 47 42 40 42 39 36 33 26 23 22 19 13 7 2 355 348 341 335 333 331 309 300 297 294
19 26 29 22 20 15 20 19 26 16 9 18 18 358 338 341 29 35 39 50 41 43 46 42 41 37 31 26 19 19 14 8 2 0 357 352 350 343 337 338 314 302 299
11 16 15 22 18 23 8 5 18 49 4 357 23 51 20 283 324 356 34 43 38 37 36 42 40 34 32 25 18 15 12 7 2 357 355 358 359 354 352 349 349 331 313
351 357 5 15 16 17 4 349 28 23 52 333 347 13 193 214 272 317 339 17 29 38 31 35 33 28 27 23 19 14 12 8 4 2 359 359 1 360 360 356 356 356 349
332 339 349 3 12 17 357 359 16 25 69 243 293 324 0 8 198 223 283 318 352 20 27 26 28 25 23 20 16 14 13 8 5 3 2 5 5 5 7 5 4 1 358
304 315 319 328 338 357 343 335 5 30 32 86 251 237 217 262 272 235 258 288 305 307 6 22 26 21 21 18 15 14 12 9 6 5 4 4 6 9 8 9 8 5 2
278 284 283 271 271 275 293 338 25 14 31 73 356 270 251 245 249 232 243 277 292 291 292 4 22 27 22 15 8 9 8 6 5 2 5 12 15 14 12 9 9 9 8
254 266 257 251 252 252 247 191 213 227 96 60 327 287 269 282 269 223 214 229 292 293 275 284 330 19 12 10 3 4 2 2 3 4 8 11 11 11 10 8 8 8 7
248 244 242 246 249 240 223 203 224 241 190 237 255 260 261 278 283 256 224 199 212 269 279 286 310 339 357 2 0 0 357 358 0 2 3 7 6 6 6 5 4 3 2
246 243 242 239 240 234 222 209 221 219 205 236 237 248 261 270 287 276 244 232 210 218 257 270 265 301 334 345 352 353 349 352 354 355 356 359 359 359 0 359 359 358 356
245 241 239 236 235 232 220 212 223 216 218 234 235 232 251 250 254 262 247 234 228 211 246 273 264 298 314 325 334 340 342 342 341 347 348 351 351 351 353 353 354 354 352
245 239 237 237 238 234 221 215 226 223 220 228 232 228 245 239 243 246 232 233 235 224 225 265 283 298 296 302 313 321 334 336 332 335 337 342 343 343 344 345 346 346 345
250 244 236 238 240 235 227 222 220 222 223 226 223 221 232 224 239 240 234 235 241 242 224 246 277 281 287 298 315 312 313 321 327 328 328 332 334 336 337 337 338 341 342
248 245 239 239 239 236 230 226 221 222 226 229 227 224 225 220 229 232 235 233 228 233 231 245 266 276 274 284 299 306 315 317 317 322 323 324 326 329 328 329 331 333 334
252 247 245 247 241 236 233 226 222 223 224 230 233 231 229 229 232 231 233 226 215 222 231 245 262 274 275 278 282 287 302 312 300 298 312 314 315 314 316 317 321 322 324
263 253 248 247 246 245 248 244 231 221 221 224 234 237 237 242 244 249 250 244 226 220 228 237 252 257 263 252 254 271 292 317 310 312 321 304 301 293 299 304 310 315 316
262 260 255 250 251 252 255 254 245 225 221 227 231 234 241 237 242 239 255 259 257 253 246 233 240 248 251 238 231 253 257 263 270 287 311 292 293 287 291 300 306 306 309
258 259 260 255 256 260 261 258 253 237 226 230 230 228 232 241 235 229 229 242 249 254 255 248 236 242 243 235 225 239 252 270 270 261 236 274 294 286 296 299 302 300 309
265 260 262 257 255 262 263 259 254 235 234 238 234 229 229 235 245 245 234 239 251 256 259 254 252 255 259 260 249 240 261 285 291 279 214 254 292 301 294 281 292 303 307
262 267 268 259 253 258 263 257 251 230 237 245 243 237 240 240 248 249 234 231 247 253 245 256 259 265 269 268 261 240 229 248 268 278 229 240 282 324 311 285 270 293 303
Height
1530 1530 1529 1529 1529 1528 1528 1527 1527 1526 1526 1525 1525 1525 1524 1524 1524 1524 1523 1523 1523 1523 1523 1523 1523 1523 1523 1523 1523 1523 1523 1523 1523 1523 1524 1524 1524 1524 1525 1525 1525 1525 1526
1529 1528 1528 1527 1527 1527 1526 1526 1525 1524 1524 1523 1523 1523 1522 1522 1522 1521 1521 1521 1521 1521 1520 1520 1520 1520 1520 1520 1520 1520 1520 1520 1520 1519 1519 1519 1520 1520 1520 1521 1521 1521 1522
1527 1527 1526 1526 1525 1525 1525 1524 1523 1523 1522 1521 1521 1521 1520 1520 1520 1519 1519 1519 1518 1518 1518 1518 1518 1517 1517 1517 1517 1517 1517 1516 1516 1516 1516 1515 1515 1515 1515 1516 1516 1517 1517
1526 1526 1525 1524 1524 1523 1523 1522 1521 1521 1520 1519 1519 1518 1518 1518 1518 1518 1517 1517 1516 1516 1516 1515 1515 1515 1514 1514 1514 1513 1513 1513 1513 1512 1512 1512 1512 1511 1511 1511 1511 1512 1512
1524 1524 1524 1523 1522 1522 1521 1520 1520 1519 1518 1517 1517 1516 1516 1516 1516 1516 1515 1515 1514 1514 1513 1513 1512 1512 1511 1511 1511 1510 1510 1509 1509 1509 1508 1508 1508 1507 1507 1507 1507 1507 1508
1523 1522 1522 1521 1521 1520 1519 1519 1518 1517 1516 1516 1515 1514 1514 1514 1514 1513 1513 1513 1512 1512 1511 1511 1510 1509 1509 1508 1508 1507 1506 1506 1505 1505 1504 1504 1503 1503 1503 1503 1502 1502 1503
1521 1521 1520 1520 1519 1518 1517 1517 1516 1516 1515 1514 1514 1513 1512 1512 1512 1511 1511 1511 1510 1509 1509 1508 1507 1507 1506 1505 1505 1504 1503 1503 1502 1501 1500 1500 1499 1498 1498 1498 1497 1497 1497
1519 1519 1519 1518 1518 1517 1516 1515 1515 1514 1513 1513 1512 1511 1511 1511 1510 1509 1509 1508 1508 1507 1506 1506 1505 1504 1503 1502 1502 1501 1500 1499 1498 1497 1496 1495 1495 1494 1494 1493 1492 1492 1492
1518 1517 1517 1516 1516 1515 1514 1513 1513 1512 1512 1511 1511 1511 1510 1509 1508 1507 1506 1506 1505 1505 1504 1503 1502 1502 1501 1499 1498 1497 1496 1495 1494 1494 1493 1491 1490 1490 1489 1488 1488 1487 1487
1516 1515 1515 1514 1513 1513 1512 1512 1511 1510 1510 1509 1509 1509 1509 1508 1507 1505 1505 1504 1503 1502 1501 1500 1500 1499 1498 1497 1496 1494 1493 1492 1491 1490 1489 1488 1486 1485 1484 1484 1483 1482 1482
1514 1513 1513 1512 1512 1511 1510 1510 1509 1508 1508 1507 1506 1506 1505 1505 1505 1504 1502 1501 1501 1500 1499 1498 1497 1496 1495 1494 1493 1492 1490 1489 1487 1486 1485 1484 1483 1481 1480 1479 1479 1478 1477
1512 1511 1511 1510 1510 1509 1508 1507 1506 1505 1505 1504 1504 1503 1503 1503 1502 1501 1499 1498 1497 1497 1496 1495 1494 1493 1492 1491 1490 1488 1487 1486 1484 1482 1481 1480 1479 1478 1476 1475 1475 1474 1473
1509 1509 1508 1508 1507 1506 1506 1504 1503 1503 1502 1502 1501 1500 1500 1500 1499 1498 1497 1495 1494 1493 1493 1492 1491 1490 1489 1488 1487 1486 1484 1483 1481 1479 1478 1477 1475 1474 1473 1472 1470 1470 1469
1506 1506 1505 1505 1504 1503 1503 1502 1501 1500 1499 1499 1499 1498 1497 1497 1496 1495 1495 1493 1491 1490 1489 1489 1488 1487 1486 1485 1484 1482 1481 1479 1478 1476 1474 1473 1472 1470 1469 1468 1466 1465 1464
1503 1503 1502 1502 1501 1500 1499 1499 1498 1497 1496 1496 1496 1495 1495 1494 1493 1492 1492 1491 1491 1488 1486 1485 1485 1484 1483 1482 1480 1479 1477 1476 1474 1473 1471 1470 1468 1467 1465 1464 1462 1461 1460
1500 1499 1499 1498 1497 1497 1496 1495 1494 1494 1493 1493 1493 1492 1491 1491 1490 1489 1489 1488 1487 1486 1483 1482 1481 1481 1479 1478 1477 1475 1474 1472 1471 1469 1468 1466 1464 1463 1462 1460 1459 1457 1456
1496 1495 1495 1494 1493 1493 1492 1492 1491 1490 1490 1490 1489 1488 1488 1487 1486 1486 1485 1484 1483 1482 1480 1478 1478 1477 1476 1474 1473 1472 1470 1469 1467 1465 1464 1462 1461 1459 1458 1456 1454 1453 1452
1492 1491 1491 1490 1489 1489 1488 1488 1487 1487 1486 1486 1485 1484 1484 1483 1482 1482 1481 1480 1480 1478 1477 1474 1473 1473 1472 1471 1469 1468 1466 1465 1463 1461 1460 1458 1457 1455 1454 1452 1450 1449 1447
1488 1487 1486 1486 1485 1485 1484 1483 1483 1482 1482 1481 1481 1480 1480 1479 1479 1478 1477 1476 1475 1474 1473 1471 1469 1468 1467 1466 1465 1464 1462 1461 1459 1457 1456 1455 1453 1451 1450 1448 1446 1445 1443
1483 1483 1482 1482 1481 1480 1479 1479 1478 1478 1477 1477 1476 1476 1476 1475 1474 1473 1472 1472 1471 1470 1469 1467 1465 1464 1463 1462 1461 1459 1457 1456 1455 1454 1452 1451 1449 1447 1446 1444 1442 1441 1439
1479 1478 1478 1477 1476 1475 1475 1474 1474 1473 1472 1472 1472 1471 1471 1470 1469 1469 1468 1467 1466 1465 1464 1463 1461 1460 1459 1458 1457 1455 1453 1451 1450 1449 1448 1447 1445 1443 1442 1440 1439 1437 1435
1475 1474 1473 1472 1471 1470 1470 1469 1469 1468 1467 1467 1466 1466 1466 1465 1464 1464 1463 1462 1462 1461 1459 1459 1457 1456 1454 1454 1453 1451 1449 1447 1445 1445 1443 1442 1441 1439 1437 1436 1434 1433 1431
1470 1469 1468 1467 1466 1466 1465 1464 1463 1462 1462 1461 1461 1461 1460 1460 1459 1459 1458 1457 1456 1456 1455 1454 1452 1451 1450 1449 1448 1447 1445 1444 1442 1440 1439 1436 1436 1435 1433 1431 1430 1428 1427
1465 1464 1463 1462 1461 1460 1460 1459 1458 1457 1456 1455 1455 1455 1455 1454 1454 1453 1452 1451 1451 1451 1450 1449 1448 1447 1446 1445 1444 1443 1441 1439 1438 1437 1435 1432 1430 1429 1428 1426 1425 1424 1423
1460 1459 1458 1457 1456 1455 1454 1453 1452 1451 1450 1450 1449 1449 1449 1449 1448 1447 1447 1446 1445 1445 1445 1444 1443 1442 1441 1440 1439 1438 1437 1435 1432 1432 1430 1428 1425 1423 1422 1421 1420 1419 1418
1456 1454 1453 1452 1451 1450 1449 1448 1447 1445 1444 1444 1444 1443 1443 1443 1442 1442 1441 1440 1439 1439 1439 1438 1437 1436 1436 1435 1434 1434 1432 1431 1428 1427 1425 1424 1421 1420 1416 1415 1414 1414 1413